PBO Station Position Time Series. Reference Frame : NAM14
Format Version,1.1.0
4-character ID,FST6
Station name,Flagstaff_6
Begin Date, 2007-12-07
End Date, 2016-08-04
Release Date, 2019-08-30
Reference position, 35.2215323382 North Latitude, -111.8174529001 East Longitude, 2135.92597 meters elevation,
Date, North (mm), East (mm), Vertical (mm), North Std. Deviation (mm), East Std. Deviation (mm),              Vertical Std. Deviation (mm), Quality,
2007-12-07,0.00, 0.00, 0.00, 2.07, 1.85, 8.19, repro,
2007-12-08,1.45, -1.06, -12.40, 2.03, 1.82, 7.90, repro,
2007-12-09,0.74, 0.58, -8.52, 2.32, 2.00, 8.88, repro,
2007-12-10,-1.38, -1.12, -7.16, 4.37, 4.06, 16.33, repro,
2008-01-09,2.61, 0.84, -9.86, 2.65, 2.10, 9.81, repro,
2008-02-12,2.43, -1.04, -9.25, 3.38, 3.10, 13.33, repro,
2008-04-23,7.27, -1.45, -5.88, 4.89, 3.99, 18.66, repro,
2008-04-30,6.34, 0.54, 10.95, 5.88, 4.84, 20.47, repro,
2008-05-01,5.38, -0.44, -13.29, 2.80, 2.33, 10.59, repro,
2008-05-16,1.51, 6.45, -3.26, 2.48, 2.12, 9.37, repro,
2008-06-20,2.63, -1.49, -3.42, 6.92, 5.67, 21.88, repro,
2008-06-21,2.78, 1.04, -6.37, 1.97, 1.66, 7.23, repro,
2008-06-22,1.83, 2.39, -10.79, 1.95, 1.62, 7.20, repro,
2008-06-23,1.09, 0.42, -4.57, 2.38, 2.02, 8.78, repro,
2008-10-25,3.31, 0.19, -8.29, 1.90, 1.58, 6.98, repro,
2008-10-26,2.28, 1.16, -14.26, 1.92, 1.60, 7.07, repro,
2008-10-27,2.14, 1.20, -18.27, 1.92, 1.58, 7.01, repro,
2008-10-28,3.79, 0.45, -23.10, 2.16, 1.72, 7.73, repro,
2008-10-29,2.56, 0.96, -17.96, 2.10, 1.80, 7.83, repro,
2008-10-30,2.49, 0.92, -15.43, 1.91, 1.59, 7.02, repro,
2008-10-31,1.91, 1.52, -14.44, 1.98, 1.66, 7.37, repro,
2008-11-01,1.73, 0.63, -10.01, 1.93, 1.60, 7.07, repro,
2008-11-02,2.48, -1.12, -8.33, 1.96, 1.64, 7.18, repro,
2008-11-03,2.17, -1.05, -4.83, 1.98, 1.68, 7.30, repro,
2008-11-04,2.83, 0.57, -4.43, 1.93, 1.64, 7.15, repro,
2008-11-05,1.98, 0.86, -2.87, 1.92, 1.61, 7.10, repro,
2008-11-06,1.24, 1.12, -11.05, 1.96, 1.68, 7.27, repro,
2008-11-07,2.83, -0.10, -12.58, 1.96, 1.67, 7.28, repro,
2008-11-08,2.90, -0.83, -9.44, 1.96, 1.67, 7.28, repro,
2008-11-09,1.65, 0.06, -2.10, 1.95, 1.64, 7.14, repro,
2008-11-10,2.71, -1.28, -8.69, 2.00, 1.69, 7.33, repro,
2008-11-11,1.84, 0.65, -5.04, 2.04, 1.75, 7.58, repro,
2008-11-12,2.19, -0.10, -5.10, 1.94, 1.60, 7.06, repro,
2008-11-21,1.10, 0.92, -14.54, 2.19, 1.86, 8.18, repro,
2008-11-22,1.59, 0.06, -16.23, 2.05, 1.76, 7.65, repro,
2008-11-23,0.63, 0.34, -11.96, 2.05, 1.76, 7.59, repro,
2008-11-25,2.05, 1.98, -8.73, 1.98, 1.67, 7.28, repro,
2008-11-28,2.41, -2.14, 0.21, 2.01, 1.73, 7.48, repro,
2008-11-29,0.32, -0.70, -5.10, 2.03, 1.78, 7.48, repro,
2008-11-30,1.05, -1.59, -4.39, 1.94, 1.63, 7.14, repro,
2008-12-01,1.46, 1.28, -9.32, 1.94, 1.60, 7.09, repro,
2008-12-03,1.29, -0.16, -11.22, 1.94, 1.65, 7.14, repro,
2008-12-04,1.06, 0.55, -14.48, 2.04, 1.79, 7.54, repro,
2008-12-05,1.55, 2.13, -12.78, 2.34, 1.96, 8.49, repro,
2008-12-08,2.59, -1.02, 0.34, 3.95, 3.65, 15.69, repro,
2008-12-20,0.23, 1.48, -14.98, 1.96, 1.62, 7.20, repro,
2008-12-21,0.57, 0.62, -15.34, 1.93, 1.61, 7.04, repro,
2008-12-22,0.63, 1.28, -10.11, 2.02, 1.63, 7.32, repro,
2008-12-23,0.79, 0.61, -10.25, 1.97, 1.62, 7.25, repro,
2008-12-24,0.69, 1.56, -6.62, 1.96, 1.62, 7.24, repro,
2008-12-25,1.91, 1.36, -9.52, 1.93, 1.61, 7.09, repro,
2008-12-26,2.00, -0.18, -9.10, 1.93, 1.60, 7.08, repro,
2008-12-27,1.07, -0.82, -6.64, 1.92, 1.61, 7.08, repro,
2008-12-29,1.35, 0.68, -15.84, 1.94, 1.61, 7.13, repro,
2008-12-30,1.37, 1.68, -21.57, 1.93, 1.62, 7.09, repro,
2008-12-31,2.12, 1.01, -20.26, 1.92, 1.60, 6.99, repro,
2009-01-01,1.75, 1.42, -14.35, 2.04, 1.74, 7.56, repro,
2009-01-02,0.18, 1.22, -12.22, 1.96, 1.62, 7.23, repro,
2009-01-03,0.43, -0.03, -12.67, 1.96, 1.65, 7.31, repro,
2009-01-04,1.67, 1.86, -15.31, 1.95, 1.63, 7.16, repro,
2009-01-05,2.46, -0.69, -22.87, 3.90, 3.63, 16.01, repro,
2009-01-06,0.32, 1.02, -7.25, 1.91, 1.61, 7.02, repro,
2009-01-07,-0.27, 0.88, -11.79, 1.94, 1.62, 7.21, repro,
2009-01-08,1.71, 0.79, -15.56, 1.94, 1.66, 7.20, repro,
2009-01-09,1.78, 0.76, -17.24, 2.03, 1.71, 7.51, repro,
2009-01-10,0.64, 0.94, -19.38, 1.91, 1.62, 7.04, repro,
2009-01-11,0.94, 1.28, -21.48, 1.91, 1.61, 7.02, repro,
2009-01-12,1.23, 1.52, -19.78, 1.95, 1.62, 7.08, repro,
2009-01-13,1.32, 1.45, -20.18, 1.94, 1.62, 7.06, repro,
2009-01-14,0.98, 1.55, -22.62, 1.96, 1.64, 7.17, repro,
2009-01-15,1.27, 1.13, -20.94, 1.97, 1.65, 7.20, repro,
2009-01-16,1.22, 1.84, -20.43, 1.94, 1.65, 7.16, repro,
2009-01-17,0.94, 1.57, -20.93, 1.89, 1.60, 7.01, repro,
2009-01-18,0.98, 1.97, -20.62, 1.89, 1.60, 6.97, repro,
2009-01-19,1.45, 1.34, -22.64, 1.89, 1.61, 7.02, repro,
2009-01-20,1.43, 1.73, -22.56, 1.91, 1.62, 7.11, repro,
2009-01-21,0.80, 1.61, -16.46, 1.92, 1.62, 7.12, repro,
2009-01-22,0.19, 1.56, -9.29, 1.89, 1.61, 7.03, repro,
2009-01-23,0.49, 1.91, -16.19, 1.88, 1.59, 6.93, repro,
2009-01-24,0.07, 0.61, -19.67, 1.93, 1.62, 7.09, repro,
2009-01-25,1.75, 0.97, -17.73, 1.96, 1.65, 7.21, repro,
2009-01-26,1.89, 1.69, -20.06, 1.93, 1.64, 7.17, repro,
2009-01-27,1.09, 0.44, -13.31, 1.90, 1.62, 7.08, repro,
2009-01-28,0.68, 1.16, -18.83, 1.89, 1.63, 7.08, repro,
2009-01-29,0.45, 0.91, -14.25, 1.89, 1.59, 6.96, repro,
2009-01-30,1.84, 1.79, -16.57, 1.92, 1.63, 7.07, repro,
2009-01-31,2.23, 1.25, -12.19, 1.91, 1.62, 7.05, repro,
2009-02-01,1.54, 0.83, -15.32, 1.92, 1.62, 7.12, repro,
2009-02-02,1.08, 1.53, -20.21, 1.90, 1.62, 7.04, repro,
2009-02-03,2.49, 1.34, -19.71, 2.36, 2.00, 8.61, repro,
2009-02-04,0.57, 1.34, -14.33, 1.89, 1.60, 6.95, repro,
2009-02-05,1.13, 1.28, -18.20, 1.95, 1.66, 7.27, repro,
2009-02-06,1.00, 1.74, -18.76, 1.97, 1.70, 7.43, repro,
2009-02-07,1.18, 2.37, -17.02, 1.94, 1.67, 7.27, repro,
2009-02-08,0.59, 1.33, -11.74, 1.89, 1.60, 6.96, repro,
2009-02-09,0.45, 0.17, -6.77, 1.91, 1.63, 7.06, repro,
2009-02-10,0.67, -0.09, -8.59, 1.90, 1.59, 6.93, repro,
2009-02-11,0.86, 1.11, -12.48, 1.95, 1.70, 7.35, repro,
2009-02-12,1.21, 0.91, -11.59, 1.94, 1.66, 7.26, repro,
2009-02-13,1.65, 0.22, -11.01, 1.95, 1.70, 7.44, repro,
2009-02-14,1.60, 0.32, -12.99, 1.89, 1.59, 6.90, repro,
2009-02-15,1.37, 0.72, -14.75, 1.91, 1.63, 7.09, repro,
2009-02-16,1.75, 0.95, -7.80, 1.89, 1.61, 7.00, repro,
2009-02-17,2.12, 0.56, -11.89, 2.00, 1.68, 7.46, repro,
2009-02-18,2.07, -0.12, -8.30, 1.98, 1.72, 7.58, repro,
2009-02-19,2.04, -0.72, -14.08, 1.92, 1.65, 7.18, repro,
2009-02-20,2.05, 0.38, -20.55, 1.90, 1.63, 7.09, repro,
2009-02-21,1.91, 0.01, -17.42, 1.92, 1.63, 7.13, repro,
2009-02-22,0.28, -0.55, -14.02, 1.92, 1.64, 7.19, repro,
2009-02-23,2.37, 1.41, -17.07, 1.94, 1.66, 7.36, repro,
2009-02-24,1.80, 0.93, -20.76, 1.98, 1.72, 7.63, repro,
2009-02-25,1.37, 0.85, -13.68, 124.43, 67.79, 161.22, repro,
2009-02-26,2.90, -0.56, -12.88, 1.96, 1.71, 7.47, repro,
2009-02-27,2.70, 0.38, -12.59, 2.00, 1.78, 7.88, repro,
2009-02-28,1.63, 1.08, -17.64, 1.98, 1.76, 7.75, repro,
2009-03-01,2.61, 1.02, -19.14, 1.97, 1.73, 7.68, repro,
2009-03-02,1.71, 1.07, -16.43, 1.94, 1.67, 7.37, repro,
2009-03-03,2.54, 0.74, -13.09, 1.98, 1.71, 7.58, repro,
2009-03-04,3.16, 2.00, -12.05, 1.92, 1.64, 7.16, repro,
2009-03-05,2.87, 2.01, -5.30, 1.98, 1.76, 7.74, repro,
2009-03-06,3.58, 1.15, -7.95, 2.02, 1.81, 7.79, repro,
2009-03-07,3.75, 0.23, -5.57, 1.92, 1.65, 7.21, repro,
2009-03-08,2.85, 0.98, -5.30, 1.97, 1.72, 7.51, repro,
2009-03-09,0.43, 1.00, -7.56, 2.00, 1.76, 7.77, repro,
2009-03-10,3.14, 1.42, -14.93, 1.94, 1.66, 7.30, repro,
2009-03-11,3.06, 0.99, -10.86, 2.00, 1.80, 7.66, repro,
2009-03-12,4.33, 0.69, -13.61, 1.97, 1.70, 7.49, repro,
2009-03-13,3.57, -0.05, -12.28, 1.98, 1.74, 7.66, repro,
2009-03-14,3.32, 1.06, -5.31, 1.96, 1.69, 7.42, repro,
2009-03-15,2.03, 1.71, -5.22, 1.91, 1.62, 7.04, repro,
2009-03-16,2.66, 1.23, -11.91, 1.94, 1.66, 7.25, repro,
2009-03-17,3.84, -0.14, -14.02, 1.92, 1.63, 7.09, repro,
2009-03-18,3.70, 0.21, -14.75, 1.91, 1.62, 7.00, repro,
2009-03-19,4.10, 0.65, -12.82, 1.91, 1.61, 7.05, repro,
2009-03-20,2.56, 0.56, -6.75, 1.92, 1.63, 7.10, repro,
2009-03-21,1.99, -0.28, -8.90, 1.92, 1.63, 7.11, repro,
2009-03-22,3.06, 0.17, -5.90, 1.98, 1.77, 7.51, repro,
2009-03-23,3.96, -0.19, -5.15, 1.92, 1.64, 7.12, repro,
2009-03-24,3.31, -0.21, -9.48, 1.92, 1.62, 7.06, repro,
2009-03-25,2.82, 0.60, -7.66, 1.91, 1.62, 7.06, repro,
2009-03-26,2.46, 0.45, -5.94, 1.92, 1.62, 7.09, repro,
2009-03-27,3.25, 1.85, -6.34, 1.96, 1.64, 7.22, repro,
2009-03-28,4.48, 0.47, -10.79, 1.95, 1.63, 7.17, repro,
2009-03-29,2.74, -0.56, -7.00, 1.92, 1.62, 7.07, repro,
2009-03-30,4.48, 0.76, -9.58, 1.94, 1.62, 7.09, repro,
2009-03-31,3.23, 0.64, -10.40, 1.97, 1.63, 7.18, repro,
2009-04-01,2.85, 0.62, -6.85, 1.96, 1.63, 7.18, repro,
2009-04-02,4.13, -0.81, -5.78, 2.00, 1.69, 7.37, repro,
2009-04-03,4.06, -0.34, -7.98, 1.99, 1.68, 7.31, repro,
2009-04-04,4.32, -0.88, -11.41, 1.95, 1.62, 7.13, repro,
2009-04-05,3.55, 0.30, -15.70, 1.99, 1.65, 7.25, repro,
2009-04-06,2.92, 1.30, -17.32, 1.96, 1.62, 7.18, repro,
2009-04-07,3.92, 0.54, -16.45, 1.95, 1.62, 7.14, repro,
2009-04-08,4.00, 1.54, -8.54, 1.95, 1.61, 7.15, repro,
2009-04-09,3.96, 0.51, -10.21, 2.00, 1.67, 7.37, repro,
2009-04-10,3.65, 0.08, -12.98, 1.99, 1.64, 7.29, repro,
2009-04-11,2.87, -0.25, -12.04, 2.01, 1.66, 7.35, repro,
2009-04-12,1.86, 0.76, -7.55, 2.03, 1.68, 7.42, repro,
2009-04-13,3.19, -0.44, -7.08, 2.17, 1.86, 8.27, repro,
2009-04-14,2.41, -0.00, -11.83, 1.95, 1.62, 7.17, repro,
2009-04-15,2.86, 0.83, -4.38, 2.01, 1.66, 7.40, repro,
2009-04-16,3.17, -0.94, -11.51, 1.96, 1.61, 7.17, repro,
2009-04-17,2.55, 0.74, -16.24, 2.01, 1.63, 7.21, repro,
2009-04-18,3.80, -0.36, -17.57, 1.97, 1.63, 7.14, repro,
2009-04-19,5.03, 0.71, -13.74, 1.98, 1.62, 7.17, repro,
2009-04-20,3.07, 0.56, -19.97, 2.00, 1.64, 7.27, repro,
2009-04-21,3.79, 1.10, -19.13, 2.00, 1.63, 7.22, repro,
2009-04-22,2.06, 1.65, -14.37, 1.98, 1.61, 7.14, repro,
2009-04-23,2.59, 0.59, -10.37, 2.02, 1.66, 7.31, repro,
2009-04-24,2.44, -0.05, -10.44, 2.12, 1.72, 7.62, repro,
2009-04-25,3.30, 0.74, -9.78, 1.99, 1.63, 7.19, repro,
2009-04-26,2.81, 0.52, -19.88, 1.96, 1.63, 7.17, repro,
2009-04-27,2.03, 0.09, -13.92, 2.02, 1.66, 7.35, repro,
2009-04-28,2.70, -0.04, -8.84, 2.02, 1.65, 7.26, repro,
2009-04-29,3.11, -0.48, -20.18, 2.71, 2.43, 10.25, repro,
2009-04-30,3.55, -0.15, -13.14, 2.01, 1.69, 7.33, repro,
2009-05-01,2.19, 0.27, -16.22, 1.96, 1.60, 7.04, repro,
2009-05-02,0.71, -1.20, -22.26, 2.00, 1.62, 7.26, repro,
2009-05-03,2.38, 0.39, -17.28, 1.96, 1.60, 7.07, repro,
2009-05-04,2.03, -0.01, -10.24, 1.96, 1.62, 7.11, repro,
2009-05-05,2.09, 1.52, -9.58, 1.96, 1.59, 7.05, repro,
2009-05-06,2.47, 0.70, -16.83, 2.01, 1.62, 7.25, repro,
2009-05-07,2.67, -0.27, -16.61, 1.99, 1.64, 7.25, repro,
2009-05-08,2.38, 1.49, -7.72, 2.34, 2.02, 8.76, repro,
2009-05-09,2.96, 0.91, -15.51, 1.96, 1.60, 7.15, repro,
2009-05-10,1.31, 0.11, -10.46, 1.91, 1.60, 7.06, repro,
2009-05-11,1.00, 1.74, -8.41, 1.97, 1.66, 7.29, repro,
2009-05-12,1.18, 1.48, -12.99, 2.04, 1.70, 7.41, repro,
2009-05-13,1.51, 0.15, -11.00, 1.97, 1.65, 7.28, repro,
2009-05-14,1.95, 1.65, -10.14, 1.93, 1.61, 7.14, repro,
2009-05-15,1.54, 0.83, -11.92, 1.95, 1.60, 7.10, repro,
2009-05-16,2.07, 0.67, -8.83, 1.93, 1.60, 7.09, repro,
2009-05-17,1.84, 0.67, -16.59, 1.94, 1.61, 7.11, repro,
2009-05-18,2.48, 1.11, -19.22, 1.96, 1.62, 7.18, repro,
2009-05-19,2.39, -0.42, -16.41, 2.37, 1.98, 8.86, repro,
2009-05-20,2.23, 1.46, -10.56, 1.96, 1.65, 7.21, repro,
2009-05-21,1.67, 0.59, -10.02, 1.93, 1.61, 7.08, repro,
2009-05-22,1.06, 0.83, -14.43, 1.92, 1.60, 7.04, repro,
2009-05-23,-0.39, 0.92, -17.89, 1.94, 1.60, 7.04, repro,
2009-05-24,1.41, 0.24, -14.55, 1.97, 1.62, 7.13, repro,
2009-05-25,0.69, 0.85, -2.30, 1.94, 1.60, 7.05, repro,
2009-05-26,1.97, 1.28, -6.37, 1.93, 1.60, 7.05, repro,
2009-05-27,3.65, 1.69, -6.34, 2.20, 1.82, 7.94, repro,
2009-05-28,2.07, 0.18, -8.38, 2.11, 1.74, 7.72, repro,
2009-05-29,1.44, 1.84, -9.36, 1.97, 1.62, 7.14, repro,
2009-05-30,2.21, -0.36, -11.22, 1.96, 1.62, 7.16, repro,
2009-05-31,2.02, 1.04, -11.84, 1.95, 1.60, 7.10, repro,
2009-06-01,1.71, 1.76, -9.84, 1.98, 1.65, 7.17, repro,
2009-06-02,1.21, 1.61, -10.98, 2.06, 1.70, 7.59, repro,
2009-06-03,0.97, 2.15, -14.26, 1.95, 1.61, 7.14, repro,
2009-06-04,1.95, 2.12, -13.56, 1.93, 1.60, 7.07, repro,
2009-06-05,1.63, 0.39, -14.67, 1.99, 1.65, 7.20, repro,
2009-06-06,3.50, 1.81, -6.74, 1.98, 1.64, 7.24, repro,
2009-06-07,2.41, 1.44, -11.63, 1.98, 1.65, 7.15, repro,
2009-06-08,1.56, 1.18, -4.44, 1.97, 1.61, 7.19, repro,
2009-06-09,2.26, 2.01, -9.58, 1.97, 1.61, 7.18, repro,
2009-06-10,1.34, 1.81, -13.99, 1.99, 1.66, 7.22, repro,
2009-06-11,0.53, 0.43, -5.95, 1.96, 1.60, 7.12, repro,
2009-06-12,2.47, 1.76, -7.53, 1.94, 1.61, 7.17, repro,
2009-06-13,1.52, 2.58, -0.71, 1.98, 1.66, 7.23, repro,
2009-06-14,1.64, 1.57, -7.09, 1.99, 1.67, 7.30, repro,
2009-06-15,1.26, 0.90, -8.36, 1.98, 1.62, 7.22, repro,
2009-06-16,2.27, 1.74, -11.01, 1.97, 1.62, 7.20, repro,
2009-06-17,1.12, 1.40, -5.86, 1.97, 1.63, 7.25, repro,
2009-06-18,2.95, 2.28, -5.85, 1.99, 1.67, 7.27, repro,
2009-06-19,3.45, -0.23, -3.24, 2.05, 1.70, 7.53, repro,
2009-06-20,0.40, 1.77, -13.42, 2.32, 1.84, 8.14, repro,
2009-06-21,0.50, 3.32, -13.66, 1.97, 1.64, 7.24, repro,
2009-06-22,1.50, 1.17, -7.72, 1.98, 1.66, 7.37, repro,
2009-06-23,2.95, 4.14, -8.83, 1.98, 1.65, 7.32, repro,
2009-06-24,2.17, 1.57, -9.39, 1.98, 1.64, 7.30, repro,
2009-06-25,1.57, -0.48, -2.59, 1.95, 1.63, 7.21, repro,
2009-06-26,0.32, 2.62, -15.62, 2.01, 1.70, 7.51, repro,
2009-06-27,1.39, 1.27, -11.34, 2.03, 1.70, 7.45, repro,
2009-06-28,0.32, 3.24, -14.06, 1.96, 1.64, 7.25, repro,
2009-06-29,0.70, 3.77, -13.99, 1.97, 1.63, 7.24, repro,
2009-06-30,1.67, 1.75, -6.87, 1.99, 1.72, 7.42, repro,
2009-07-01,2.23, 1.07, -15.17, 2.00, 1.74, 7.52, repro,
2009-07-02,1.18, 2.73, -12.85, 3.62, 3.45, 13.61, repro,
2009-07-03,2.09, 1.43, -17.89, 2.06, 1.78, 7.84, repro,
2009-07-04,2.38, 2.85, -19.06, 2.01, 1.69, 7.42, repro,
2009-07-05,1.60, 3.98, -8.49, 1.95, 1.64, 7.26, repro,
2009-07-06,2.01, 1.30, -4.37, 1.94, 1.64, 7.22, repro,
2009-07-07,2.04, 0.16, -9.19, 1.94, 1.65, 7.22, repro,
2009-07-08,0.60, 0.83, -10.74, 1.94, 1.63, 7.20, repro,
2009-07-09,1.17, 2.82, -15.70, 1.95, 1.62, 7.21, repro,
2009-07-10,1.76, 1.92, -14.79, 1.94, 1.62, 7.17, repro,
2009-07-11,0.44, 1.54, -5.09, 1.97, 1.65, 7.31, repro,
2009-07-12,2.40, 1.84, -13.53, 1.93, 1.63, 7.17, repro,
2009-07-13,3.09, 0.53, -8.57, 1.94, 1.62, 7.15, repro,
2009-07-14,2.68, 1.72, -14.69, 1.94, 1.64, 7.19, repro,
2009-07-15,2.45, 1.39, -12.89, 1.95, 1.64, 7.24, repro,
2009-07-16,1.30, 0.64, -9.53, 1.94, 1.62, 7.18, repro,
2009-07-17,2.79, -0.10, -8.94, 1.94, 1.62, 7.14, repro,
2009-07-19,4.86, 1.26, -19.64, 1.95, 1.65, 7.20, repro,
2009-07-20,1.95, 2.93, -8.84, 2.03, 1.68, 7.39, repro,
2009-07-21,1.51, 0.02, -8.80, 1.94, 1.63, 7.18, repro,
2009-07-22,4.26, 1.05, -10.56, 1.94, 1.63, 7.16, repro,
2009-07-23,4.26, -1.05, -7.62, 1.95, 1.64, 7.17, repro,
2009-07-24,2.84, -0.47, -12.70, 1.97, 1.69, 7.30, repro,
2009-07-25,2.59, -1.33, -12.28, 1.98, 1.67, 7.29, repro,
2009-07-26,-2.48, 3.96, -19.02, 4.92, 4.61, 19.21, repro,
2009-07-27,3.52, 0.64, -16.14, 1.96, 1.65, 7.28, repro,
2009-07-28,4.20, 0.82, -11.32, 1.94, 1.63, 7.16, repro,
2009-07-29,4.26, -1.38, -14.95, 2.01, 1.66, 7.32, repro,
2009-07-30,4.80, -1.48, -9.26, 2.07, 1.75, 7.66, repro,
2009-07-31,3.53, -2.17, -10.30, 1.96, 1.64, 7.15, repro,
2009-08-01,5.34, -0.72, -8.35, 1.99, 1.65, 7.29, repro,
2009-08-02,5.61, -0.79, -13.38, 1.96, 1.69, 7.26, repro,
2009-08-03,5.08, -0.80, -18.89, 1.95, 1.66, 7.20, repro,
2009-08-04,5.04, -2.22, -14.91, 1.95, 1.69, 7.21, repro,
2009-08-05,5.80, -3.29, -17.20, 2.00, 1.67, 7.30, repro,
2009-08-06,10.31, 12.68, 19.97, 12.26, 26.77, 33.28, repro,
2009-08-07,6.46, -2.83, -3.39, 2.24, 1.91, 8.27, repro,
2009-08-08,6.19, -2.82, -15.53, 1.95, 1.65, 7.16, repro,
2009-08-09,7.31, -4.42, -16.08, 2.13, 1.79, 7.92, repro,
2009-08-10,5.88, -3.13, -13.22, 1.94, 1.64, 7.10, repro,
2009-08-11,5.81, -2.41, -11.40, 1.96, 1.64, 7.16, repro,
2009-08-12,9.08, -3.48, -11.25, 1.96, 1.64, 7.16, repro,
2009-08-13,6.53, -4.43, -13.31, 1.99, 1.66, 7.24, repro,
2009-08-14,4.88, -2.79, -20.39, 1.95, 1.65, 7.21, repro,
2009-08-15,6.97, -5.19, -7.71, 1.95, 1.64, 7.13, repro,
2009-08-16,7.32, -3.84, -11.86, 1.98, 1.63, 7.23, repro,
2009-08-17,8.32, -2.95, -8.97, 1.95, 1.63, 7.13, repro,
2009-08-18,8.14, -2.96, -10.65, 2.00, 1.66, 7.32, repro,
2009-08-19,8.13, -4.00, -15.03, 1.93, 1.64, 7.11, repro,
2009-08-20,6.66, -4.50, -12.72, 1.94, 1.64, 7.12, repro,
2009-08-21,9.58, -4.36, -15.61, 2.00, 1.69, 7.38, repro,
2009-08-22,6.51, -3.83, -8.39, 2.01, 1.69, 7.41, repro,
2009-08-23,9.46, -4.36, -4.38, 2.04, 1.75, 7.54, repro,
2009-08-24,7.69, -2.43, -23.03, 2.03, 1.71, 7.56, repro,
2009-08-25,5.91, -3.18, -16.35, 2.09, 1.73, 7.74, repro,
2009-08-26,7.45, -5.65, -21.28, 2.00, 1.69, 7.40, repro,
2009-08-27,7.09, -4.21, -18.74, 2.00, 1.67, 7.36, repro,
2009-08-28,8.01, -2.88, -13.05, 1.93, 1.63, 7.14, repro,
2009-08-29,7.38, -4.86, -11.39, 1.98, 1.64, 7.30, repro,
2009-08-30,7.24, -5.39, -13.16, 1.98, 1.66, 7.44, repro,
2009-08-31,7.08, -4.91, -21.21, 2.00, 1.69, 7.44, repro,
2009-09-01,8.02, -7.16, -22.41, 2.03, 1.65, 7.49, repro,
2009-09-02,8.47, -3.67, -12.75, 2.01, 1.70, 7.46, repro,
2009-09-03,8.44, -4.36, -11.41, 2.53, 2.03, 9.05, repro,
2009-09-04,7.41, -6.11, -9.49, 2.00, 1.67, 7.50, repro,
2009-09-05,8.36, -6.39, -14.60, 2.01, 1.77, 7.60, repro,
2009-09-06,9.00, -6.63, -14.79, 1.99, 1.68, 7.33, repro,
2009-09-07,7.86, -5.27, -14.02, 2.06, 1.71, 7.61, repro,
2009-09-08,7.46, -4.65, -4.53, 2.03, 1.70, 7.58, repro,
2009-09-09,7.49, -4.60, -5.63, 1.99, 1.66, 7.35, repro,
2009-09-10,8.32, -5.84, -14.24, 1.97, 1.64, 7.29, repro,
2009-09-11,8.62, -4.15, -17.92, 1.91, 1.62, 7.12, repro,
2009-09-12,8.17, -5.22, -13.99, 1.94, 1.64, 7.24, repro,
2009-09-13,6.23, -5.01, -6.63, 1.91, 1.62, 7.16, repro,
2009-09-14,7.32, -4.26, -6.10, 1.91, 1.63, 7.19, repro,
2009-09-15,7.82, -4.17, -12.38, 1.89, 1.61, 7.07, repro,
2009-09-16,7.92, -6.09, -17.14, 1.90, 1.61, 7.08, repro,
2009-09-17,7.81, -6.00, -15.95, 1.92, 1.66, 7.18, repro,
2009-09-18,9.06, -4.99, -14.68, 1.98, 1.69, 7.40, repro,
2009-09-19,8.83, -4.68, -15.69, 1.96, 1.74, 7.50, repro,
2009-09-20,8.21, -3.86, -3.01, 2.65, 2.27, 9.64, repro,
2009-09-21,4.53, -10.37, -9.89, 5.82, 5.31, 24.24, repro,
2009-09-22,8.60, -4.90, -17.72, 1.95, 1.69, 7.27, repro,
2009-09-23,7.54, -9.12, -8.24, 2.02, 1.80, 7.58, repro,
2009-09-24,7.57, -5.03, -13.22, 1.91, 1.65, 7.10, repro,
2009-09-25,8.84, -4.49, -9.38, 1.93, 1.68, 7.17, repro,
2009-09-26,9.52, -5.22, -14.14, 1.92, 1.66, 7.16, repro,
2009-09-27,8.88, -5.48, -13.70, 1.93, 1.67, 7.22, repro,
2009-09-28,7.38, -5.14, -11.56, 1.97, 1.67, 7.34, repro,
2009-09-29,7.45, -6.43, -9.86, 1.96, 1.69, 7.28, repro,
2009-09-30,6.76, -4.28, -4.04, 1.90, 1.65, 7.13, repro,
2009-10-01,9.05, -5.08, -14.27, 1.94, 1.66, 7.33, repro,
2009-10-02,9.40, -4.93, -16.21, 2.11, 1.81, 7.89, repro,
2009-10-03,6.94, -6.65, -17.52, 1.90, 1.62, 7.12, repro,
2009-10-04,7.24, -3.51, -7.28, 1.90, 1.63, 7.21, repro,
2009-10-05,8.72, -3.59, -12.46, 1.88, 1.61, 7.05, repro,
2009-10-06,8.08, -6.10, -8.09, 1.89, 1.61, 7.04, repro,
2009-10-07,9.81, -5.36, -8.30, 1.90, 1.62, 7.10, repro,
2009-10-08,7.69, -5.81, -8.42, 1.98, 1.63, 7.30, repro,
2009-10-09,8.58, -4.90, -15.41, 1.90, 1.66, 7.17, repro,
2009-10-10,7.06, -5.23, -8.92, 1.90, 1.65, 7.11, repro,
2009-10-11,6.71, -5.74, -12.78, 1.90, 1.62, 7.05, repro,
2009-10-12,8.76, -6.22, -16.74, 1.90, 1.66, 7.16, repro,
2009-10-13,8.56, -5.32, -9.85, 1.92, 1.69, 7.26, repro,
2009-10-14,7.31, -5.58, -11.01, 1.90, 1.67, 7.22, repro,
2009-10-15,8.49, -4.37, -9.96, 1.96, 1.74, 7.41, repro,
2009-10-16,8.35, -6.96, -21.40, 1.93, 1.66, 7.21, repro,
2009-10-17,8.18, -5.74, -18.98, 1.95, 1.74, 7.36, repro,
2009-10-18,7.21, -5.49, -16.64, 1.94, 1.70, 7.40, repro,
2009-10-19,7.70, -5.65, -14.13, 1.93, 1.69, 7.28, repro,
2009-10-20,9.00, -4.96, -14.24, 1.92, 1.70, 7.30, repro,
2009-10-21,10.01, -4.73, -4.99, 1.92, 1.68, 7.25, repro,
2009-10-22,9.16, -6.13, -11.44, 1.91, 1.66, 7.15, repro,
2009-10-23,9.79, -5.86, -9.39, 1.91, 1.70, 7.28, repro,
2009-10-24,6.85, -5.34, -5.90, 1.90, 1.62, 7.10, repro,
2009-10-25,6.83, -5.66, -4.56, 1.88, 1.64, 7.09, repro,
2009-10-26,6.67, -5.70, -12.23, 1.93, 1.70, 7.28, repro,
2009-10-27,8.81, -4.94, -17.21, 2.05, 1.73, 7.64, repro,
2009-10-28,8.11, -6.97, -8.36, 1.95, 1.71, 7.34, repro,
2009-10-29,8.52, -6.56, -2.46, 1.93, 1.69, 7.30, repro,
2009-10-30,8.29, -5.58, -9.13, 2.07, 1.84, 8.11, repro,
2009-10-31,7.35, -4.28, -10.81, 1.99, 1.76, 7.57, repro,
2009-11-01,8.07, -4.81, -13.34, 1.96, 1.72, 7.47, repro,
2009-11-02,7.79, -5.15, -16.92, 1.99, 1.69, 7.39, repro,
2009-11-03,9.50, -5.77, -15.65, 1.93, 1.67, 7.34, repro,
2009-11-04,8.22, -5.40, -14.46, 2.11, 1.80, 8.19, repro,
2009-11-05,7.82, -5.24, -10.56, 2.05, 1.84, 7.82, repro,
2009-11-06,7.31, -5.17, -15.06, 2.11, 1.87, 8.12, repro,
2009-11-07,8.02, -5.05, -7.97, 2.01, 1.77, 7.64, repro,
2009-11-08,9.02, -5.80, -10.04, 2.00, 1.76, 7.55, repro,
2009-11-09,7.93, -5.54, -12.97, 1.99, 1.76, 7.55, repro,
2009-11-10,8.15, -4.89, -16.46, 2.05, 1.84, 7.81, repro,
2009-11-11,6.98, -4.24, -17.20, 1.96, 1.71, 7.44, repro,
2009-11-12,8.28, -5.88, -13.62, 2.02, 1.78, 7.65, repro,
2009-11-13,8.50, -6.01, -8.59, 1.99, 1.76, 7.61, repro,
2009-11-14,6.47, -6.62, -6.79, 2.03, 1.78, 7.62, repro,
2009-11-15,8.81, -6.52, -17.11, 1.95, 1.70, 7.36, repro,
2009-11-16,7.81, -4.76, -17.27, 1.95, 1.70, 7.37, repro,
2009-11-17,7.02, -5.60, -16.45, 2.03, 1.75, 7.66, repro,
2009-11-18,6.78, -4.85, -13.37, 2.00, 1.69, 7.48, repro,
2009-11-19,8.56, -5.48, -10.75, 1.96, 1.70, 7.38, repro,
2009-11-20,9.19, -5.19, -13.19, 1.93, 1.66, 7.22, repro,
2009-11-21,7.94, -7.19, -12.28, 1.91, 1.68, 7.23, repro,
2009-11-22,7.60, -5.42, -13.02, 1.91, 1.71, 7.30, repro,
2009-11-23,7.63, -5.50, -13.42, 1.91, 1.68, 7.19, repro,
2009-11-24,7.61, -4.34, -19.07, 1.90, 1.64, 7.14, repro,
2009-11-25,8.25, -5.18, -12.38, 1.92, 1.64, 7.13, repro,
2009-11-26,9.14, -6.90, -19.84, 2.00, 1.77, 7.49, repro,
2009-11-27,8.91, -5.91, -14.16, 1.95, 1.70, 7.34, repro,
2009-11-28,8.56, -6.43, -11.44, 2.34, 1.93, 8.45, repro,
2009-11-30,7.60, -6.59, -4.39, 2.80, 2.53, 11.39, repro,
2009-12-01,8.94, -5.92, -10.39, 1.94, 1.65, 7.27, repro,
2009-12-02,8.67, -6.86, -15.59, 1.91, 1.64, 7.12, repro,
2009-12-03,7.59, -5.99, -12.03, 1.90, 1.62, 7.12, repro,
2009-12-04,6.44, -4.99, -10.74, 1.90, 1.62, 7.11, repro,
2009-12-05,7.04, -3.52, -10.99, 1.91, 1.61, 7.08, repro,
2009-12-06,8.09, -5.45, -13.67, 1.89, 1.60, 7.01, repro,
2009-12-07,10.15, -5.32, -13.63, 1.91, 1.62, 7.10, repro,
2009-12-08,8.17, -4.93, -10.32, 1.94, 1.65, 7.28, repro,
2009-12-09,5.94, -5.10, -9.60, 1.96, 1.66, 7.39, repro,
2009-12-10,7.31, -3.78, -10.94, 1.94, 1.64, 7.27, repro,
2009-12-11,7.38, -5.14, -13.95, 1.92, 1.63, 7.11, repro,
2009-12-12,6.98, -6.45, -15.33, 2.04, 1.68, 7.58, repro,
2009-12-13,7.90, -5.23, -20.61, 1.89, 1.60, 7.09, repro,
2009-12-14,7.98, -5.14, -18.91, 1.96, 1.66, 7.41, repro,
2009-12-15,8.17, -5.18, -19.62, 1.93, 1.64, 7.20, repro,
2009-12-16,7.91, -4.78, -24.86, 1.94, 1.64, 7.29, repro,
2009-12-17,7.65, -4.22, -19.44, 1.95, 1.67, 7.34, repro,
2009-12-18,7.73, -5.68, -22.96, 1.91, 1.61, 7.09, repro,
2009-12-19,8.25, -5.63, -18.71, 1.97, 1.67, 7.45, repro,
2009-12-20,7.31, -5.01, -20.67, 1.93, 1.68, 7.31, repro,
2009-12-21,6.68, -4.36, -16.09, 1.93, 1.65, 7.27, repro,
2009-12-22,6.80, -6.23, -18.57, 1.94, 1.70, 7.25, repro,
2009-12-23,9.97, -5.20, -13.32, 1.89, 1.60, 7.03, repro,
2009-12-24,6.72, -5.03, -18.25, 1.95, 1.64, 7.30, repro,
2009-12-25,7.22, -4.49, -15.68, 1.91, 1.63, 7.13, repro,
2009-12-26,6.82, -4.71, -13.66, 2.02, 1.65, 7.41, repro,
2009-12-27,8.18, -4.29, -19.74, 1.92, 1.61, 7.18, repro,
2009-12-28,8.86, -4.40, -19.79, 1.86, 1.59, 6.98, repro,
2009-12-29,7.51, -4.96, -20.31, 1.87, 1.60, 7.06, repro,
2009-12-30,6.76, -4.49, -17.31, 1.89, 1.59, 7.04, repro,